EW9451 Weather Reports


Display with metric or nautical units.
time (UTC)temp
F
wind
direction
speed
MPH
gust
MPH
rain 1hr
in
rain 24hr
in
rain mn
in
humidity
%
barometer
mb
20260901125008 60 171 0.0 1.0 0.00 0.00 0.00 89 1011.3
20260901124507 60 171 0.0 1.0 0.00 0.00 0.00 89 1011.2
20260901124008 60 171 0.0 0.0 0.00 0.00 0.00 89 1011.1
20260901123507 60 171 0.0 2.0 0.00 0.00 0.00 89 1011.1
20260901123006 60 171 0.0 2.0 0.00 0.00 0.00 89 1011.3
20260901122503 60 171 0.0 0.0 0.00 0.00 0.00 89 1011.2
20260901122002 60 171 0.0 0.0 0.00 0.00 0.00 89 1011.4
20260901121507 59 171 0.0 0.0 0.00 0.00 0.00 89 1011.4
20260901121002 59 171 0.0 0.0 0.00 0.00 0.00 89 1011.4
20260901120502 59 171 0.0 0.0 0.00 0.00 0.00 88 1011.4
20260901120003 59 171 0.0 1.0 0.00 0.00 0.00 89 1011.2
20260901115502 59 171 0.0 1.0 0.00 0.00 0.00 89 1011.2
20260901115004 59 171 0.0 1.0 0.00 0.00 0.00 89 1011.2
20260901114601 59 171 0.0 1.0 0.00 0.00 0.00 89 1011.3
20260901114100 59 246 0.0 0.0 0.00 0.00 0.00 89 1011.3
20260901113559 59 246 0.0 0.0 0.00 0.00 0.00 89 1011.3
20260901113104 59 246 0.0 0.0 0.00 0.00 0.00 89 1011.2
20260901112559 59 246 0.0 1.0 0.00 0.00 0.00 89 1011.1
20260901112059 59 246 0.0 1.0 0.00 0.00 0.00 89 1011.2
20260901111559 59 246 0.0 1.0 0.00 0.00 0.00 89 1011.1
20260901111059 59 189 0.0 0.0 0.00 0.00 0.00 89 1011.0
20260901110558 59 189 0.0 0.0 0.00 0.00 0.00 89 1011.0
20260901110058 59 189 0.0 0.0 0.00 0.00 0.00 88 1011.0
20260901105600 59 189 0.0 0.0 0.00 0.00 0.00 88 1011.0
20260901105101 59 189 0.0 0.0 0.00 0.00 0.00 89 1011.0
20260901104602 59 189 0.0 2.0 0.00 0.00 0.00 87 1011.0
20260901104057 59 189 0.0 2.0 0.00 0.00 0.00 87 1010.9
20260901103557 59 204 0.0 2.0 0.00 0.00 0.00 88 1011.0
20260901103056 59 183 0.0 0.0 0.00 0.00 0.00 89 1011.0
20260901102556 59 183 0.0 0.0 0.00 0.00 0.00 89 1011.0
20260901102056 59 183 0.0 0.0 0.00 0.00 0.00 89 1010.9
20260901101605 59 183 0.0 0.0 0.00 0.00 0.00 89 1010.9
20260901101055 59 183 0.0 0.0 0.00 0.00 0.00 88 1010.9
20260901100555 59 183 0.0 1.0 0.00 0.00 0.00 88 1010.8
20260901100058 59 183 0.0 1.0 0.00 0.00 0.00 88 1010.9
20260901095555 59 224 0.0 2.0 0.00 0.00 0.00 88 1011.0
20260901095055 59 224 0.0 2.0 0.00 0.00 0.00 87 1011.1
20260901094556 59 224 0.0 0.0 0.00 0.00 0.00 89 1011.0
20260901094058 58 224 0.0 0.0 0.00 0.00 0.00 89 1011.1
20260901093553 58 224 0.0 0.0 0.00 0.00 0.00 89 1011.0
20260901093058 58 224 0.0 0.0 0.00 0.00 0.00 89 1011.0
20260901092553 58 224 0.0 0.0 0.00 0.00 0.00 89 1010.9
20260901092053 58 224 0.0 0.0 0.00 0.00 0.00 89 1011.0
20260901091557 58 224 0.0 0.0 0.00 0.00 0.00 89 1010.9
20260901091053 58 224 0.0 0.0 0.00 0.00 0.00 89 1010.9
20260901090552 58 224 0.0 0.0 0.00 0.00 0.00 88 1010.8
20260901090052 58 224 0.0 0.0 0.00 0.00 0.00 88 1010.8
20260901085552 58 224 0.0 0.0 0.00 0.01 0.00 88 1010.8
20260901085051 58 224 0.0 0.0 0.00 0.01 0.00 88 1010.9
20260901084552 58 224 0.0 0.0 0.00 0.01 0.00 88 1010.8
20260901084050 58 224 0.0 1.0 0.00 0.01 0.00 88 1010.8
20260901083550 58 224 0.0 1.0 0.00 0.01 0.00 87 1011.0
20260901083050 58 224 0.0 1.0 0.00 0.01 0.00 88 1011.0
20260901082549 58 224 0.0 0.0 0.00 0.01 0.00 89 1011.0
20260901082052 58 224 0.0 0.0 0.00 0.01 0.00 88 1010.9
20260901081555 58 224 0.0 0.0 0.00 0.01 0.00 88 1010.9
20260901081048 58 224 0.0 0.0 0.00 0.01 0.00 88 1011.0
20260901080548 58 224 0.0 0.0 0.00 0.01 0.00 88 1011.0
20260901080140 58 224 0.0 0.0 0.00 0.01 0.00 88 1011.1
20260901075650 58 224 0.0 0.0 0.00 0.01 0.00 88 1011.1
20260901075048 58 224 0.0 1.0 0.00 0.01 0.00 88 1011.1
20260901074548 58 224 0.0 2.0 0.00 0.01 0.00 88 1011.0
20260901074046 58 224 0.0 2.0 0.00 0.01 0.00 88 1011.0
20260901073545 58 224 0.0 2.0 0.00 0.01 0.00 88 1010.9
20260901073045 58 132 0.0 0.0 0.00 0.01 0.00 89 1011.0
20260901072545 58 132 0.0 0.0 0.00 0.01 0.00 88 1011.1
20260901072048 58 132 0.0 0.0 0.00 0.01 0.00 89 1011.0
20260901071545 58 132 0.0 0.0 0.00 0.01 0.00 88 1011.1
20260901071043 58 132 0.0 0.0 0.00 0.01 0.00 88 1011.2
20260901070544 57 132 0.0 0.0 0.00 0.01 0.00 87 1011.2
20260901070042 57 132 0.0 0.0 0.00 0.01 0.00 87 1011.3
20260901065542 57 132 0.0 2.0 0.00 0.01 0.00 88 1011.3
20260901065045 57 132 1.0 2.0 0.00 0.01 0.00 89 1011.3
20260901064541 57 125 1.0 2.0 0.00 0.01 0.00 88 1011.4
20260901064041 57 247 0.0 2.0 0.00 0.01 0.00 88 1011.6
20260901063540 56 247 0.0 2.0 0.00 0.01 0.00 88 1011.6
20260901063054 56 175 0.0 2.0 0.00 0.01 0.00 88 1011.5
20260901062642 56 175 0.0 2.0 0.00 0.01 0.00 88 1011.5
20260901062039 56 300 0.0 2.0 0.00 0.01 0.00 88 1011.6
20260901061556 56 5 0.0 1.0 0.00 0.01 0.00 89 1011.5
20260901061038 56 5 0.0 1.0 0.00 0.01 0.00 87 1011.7
20260901060540 56 5 0.0 0.0 0.00 0.01 0.00 87 1011.7
20260901060038 57 5 0.0 1.0 0.00 0.01 0.00 88 1011.8
20260901055536 57 5 0.0 2.0 0.00 0.01 0.00 88 1011.9
20260901055037 57 50 0.0 2.0 0.00 0.01 0.00 86 1011.9
20260901054541 57 326 0.0 2.0 0.00 0.01 0.00 86 1011.8
20260901054035 57 15 0.0 2.0 0.00 0.01 0.00 86 1011.7
20260901053533 57 15 0.0 2.0 0.00 0.01 0.00 85 1011.8
20260901053036 58 15 0.0 2.0 0.00 0.01 0.00 85 1011.8
20260901052530 58 31 0.0 2.0 0.00 0.01 0.00 85 1011.8
20260901052030 58 355 0.0 2.0 0.00 0.01 0.00 84 1011.9
20260901051528 58 77 0.0 2.0 0.00 0.01 0.00 84 1011.8
20260901051031 58 77 0.0 2.0 0.00 0.01 0.00 84 1011.9
20260901050528 59 111 0.0 2.0 0.00 0.01 0.00 83 1011.9
20260901050027 59 47 0.0 1.0 0.00 0.01 0.00 82 1011.9
20260901045530 59 47 0.0 0.0 0.00 0.01 0.00 82 1011.9
20260901045026 59 47 0.0 0.0 0.00 0.01 0.00 81 1012.0
20260901044527 59 47 0.0 1.0 0.00 0.01 0.00 81 1011.9
20260901044025 59 47 0.0 1.0 0.00 0.01 0.00 81 1012.0
20260901043524 59 47 0.0 1.0 0.00 0.01 0.00 79 1012.1
20260901043031 59 47 0.0 1.0 0.00 0.01 0.00 78 1012.2
20260901042524 59 47 0.0 0.0 0.00 0.01 0.00 78 1012.2
20260901042022 59 47 0.0 1.0 0.00 0.01 0.00 80 1012.2
20260901041521 59 46 0.0 1.0 0.00 0.01 0.00 79 1012.1
20260901041025 59 47 0.0 1.0 0.00 0.01 0.00 81 1012.0
20260901040519 59 47 0.0 2.0 0.00 0.01 0.00 81 1012.1
20260901040018 59 47 0.0 2.0 0.00 0.01 0.00 82 1012.1
20260901035517 59 167 0.0 1.0 0.00 0.01 0.01 81 1012.1
20260901035017 59 167 0.0 1.0 0.00 0.01 0.01 80 1012.0
20260901034517 59 167 0.0 1.0 0.00 0.01 0.01 79 1012.0
20260901034017 59 167 0.0 2.0 0.00 0.01 0.01 80 1011.9
20260901033516 60 167 1.0 2.0 0.00 0.01 0.01 80 1012.0
20260901033020 60 167 0.0 2.0 0.00 0.01 0.01 79 1012.0
20260901032516 60 167 0.0 2.0 0.00 0.01 0.01 80 1012.0
20260901032017 60 167 0.0 2.0 0.00 0.01 0.01 81 1011.9
20260901031516 60 167 0.0 1.0 0.00 0.01 0.01 81 1011.9
20260901031016 60 167 0.0 2.0 0.00 0.01 0.01 76 1011.8
20260901030515 60 167 0.0 2.0 0.00 0.01 0.01 76 1011.9
20260901030017 60 167 0.0 2.0 0.00 0.01 0.01 75 1011.8
20260901025515 60 167 0.0 0.0 0.00 0.01 0.01 76 1011.9
20260901025015 60 167 0.0 0.0 0.00 0.01 0.01 78 1011.9
20260901024515 60 167 0.0 0.0 0.00 0.01 0.01 76 1012.0
20260901024014 60 167 0.0 0.0 0.00 0.01 0.01 76 1011.9
20260901023514 60 167 0.0 0.0 0.00 0.01 0.01 75 1012.0
20260901023017 59 167 0.0 0.0 0.00 0.01 0.01 76 1011.9
20260901022514 59 167 0.0 0.0 0.00 0.01 0.01 77 1012.0
20260901022014 59 167 0.0 0.0 0.00 0.01 0.01 78 1012.0
20260901021515 59 167 0.0 1.0 0.00 0.01 0.01 78 1011.9
20260901021013 59 167 0.0 2.0 0.00 0.01 0.01 77 1011.9
20260901020516 59 167 0.0 2.0 0.00 0.01 0.01 78 1012.1
20260901020013 59 167 0.0 2.0 0.00 0.04 0.01 79 1011.9
20260901015512 59 167 1.0 3.0 0.00 0.04 0.01 79 1012.0
20260901015012 59 164 1.0 2.0 0.00 0.04 0.01 81 1012.0
20260901014512 59 111 0.0 3.0 0.00 0.04 0.01 80 1012.1
20260901014011 59 218 0.0 3.0 0.00 0.04 0.01 80 1012.2
20260901013511 59 154 0.0 2.0 0.00 0.04 0.01 80 1012.2
20260901013011 59 192 0.0 2.0 0.00 0.04 0.01 80 1012.1
20260901012510 59 178 0.0 2.0 0.00 0.04 0.01 80 1012.1
20260901012012 59 256 0.0 2.0 0.00 0.04 0.01 80 1012.1
20260901011522 59 270 0.0 2.0 0.00 0.04 0.01 80 1012.1
20260901011011 59 154 0.0 2.0 0.00 0.04 0.01 79 1012.1
20260901010510 59 217 0.0 2.0 0.00 0.04 0.01 79 1012.2
20260901010010 59 182 0.0 1.0 0.00 0.04 0.01 79 1012.1
20260901005510 59 182 0.0 1.0 0.00 0.04 0.01 79 1012.1
20260901005009 59 145 0.0 0.0 0.00 0.04 0.01 80 1012.1
20260901004509 59 145 0.0 1.0 0.00 0.04 0.01 79 1012.1
20260901004008 60 145 0.0 1.0 0.00 0.04 0.01 79 1012.2
20260901003509 60 145 0.0 1.0 0.00 0.04 0.01 79 1012.1
20260901003008 60 145 0.0 0.0 0.00 0.04 0.01 79 1012.2
20260901002509 60 145 0.0 0.0 0.00 0.04 0.01 79 1012.1
20260901002008 60 145 0.0 0.0 0.00 0.04 0.01 78 1012.0
20260901001508 61 145 0.0 0.0 0.00 0.04 0.01 78 1012.0
20260901001008 61 145 0.0 1.0 0.00 0.04 0.01 79 1012.1
20260901000508 61 145 0.0 2.0 0.00 0.04 0.01 79 1012.1
20260901000010 62 145 0.0 2.0 0.00 0.04 0.01 79 1012.0
20260831235508 62 147 1.0 2.0 0.00 0.04 0.01 79 1012.1
20260831235010 63 256 0.0 0.0 0.00 0.04 0.01 80 1012.1
20260831234508 63 256 0.0 0.0 0.00 0.04 0.01 79 1012.1
20260831234008 63 256 0.0 0.0 0.00 0.04 0.01 79 1012.1
20260831233508 64 256 0.0 0.0 0.00 0.04 0.01 79 1012.0
20260831233008 65 256 0.0 0.0 0.00 0.04 0.01 78 1012.0
20260831232506 65 256 0.0 0.0 0.00 0.04 0.01 77 1012.0
20260831232006 66 256 0.0 0.0 0.00 0.04 0.01 76 1012.0
20260831231518 66 256 0.0 0.0 0.00 0.04 0.01 76 1012.0
20260831231008 67 256 0.0 0.0 0.00 0.04 0.01 74 1012.1
20260831230510 68 256 0.0 0.0 0.00 0.04 0.01 73 1012.1
20260831230006 68 256 0.0 0.0 0.00 0.04 0.01 72 1012.1
20260831225505 69 256 0.0 0.0 0.00 0.04 0.01 71 1012.1
20260831225005 70 256 0.0 0.0 0.00 0.04 0.01 69 1012.1
20260831224515 71 256 0.0 0.0 0.00 0.04 0.01 69 1012.1
20260831224008 72 256 0.0 0.0 0.00 0.04 0.01 66 1012.1
20260831223504 73 256 0.0 0.0 0.00 0.04 0.01 64 1012.1
20260831223004 74 256 0.0 0.0 0.00 0.04 0.01 61 1012.2
20260831222504 76 256 0.0 0.0 0.00 0.04 0.01 56 1012.2
20260831222003 77 256 0.0 0.0 0.00 0.04 0.01 55 1012.2
20260831221504 78 256 0.0 0.0 0.00 0.04 0.01 51 1012.2
20260831221003 79 256 0.0 0.0 0.00 0.04 0.01 51 1012.1
20260831220503 80 256 0.0 1.0 0.00 0.04 0.01 50 1012.3
20260831220003 80 256 0.0 1.0 0.00 0.04 0.01 50 1012.3
20260831215502 80 256 0.0 1.0 0.00 0.04 0.01 50 1012.2
20260831215002 80 256 0.0 2.0 0.00 0.04 0.01 49 1012.2
20260831214503 80 248 0.0 2.0 0.00 0.04 0.01 48 1012.3
20260831214003 80 240 0.0 1.0 0.00 0.04 0.01 48 1012.3
20260831213600 79 241 0.0 2.0 0.00 0.04 0.01 46 1012.3
20260831213502 79 226 0.0 2.0 0.00 0.04 0.01 47 1012.3
20260831213100 79 315 0.0 2.0 0.00 0.04 0.01 50 1012.1
20260831212602 79 281 1.0 3.0 0.00 0.04 0.01 48 1012.3
20260831212102 79 275 0.0 3.0 0.00 0.04 0.01 50 1012.2
20260831211608 80 275 0.0 2.0 0.00 0.04 0.01 49 1012.2
20260831211059 80 274 0.0 2.0 0.00 0.04 0.01 48 1012.2
20260831210557 79 274 0.0 2.0 0.00 0.04 0.01 49 1012.3
20260831205555 79 223 0.0 2.0 0.00 0.04 0.01 52 1012.5
20260831205055 78 146 0.0 4.0 0.00 0.04 0.01 47 1012.5
20260831204559 79 294 1.0 2.0 0.00 0.04 0.01 46 1012.5
20260831204055 79 285 0.0 2.0 0.00 0.04 0.01 53 1012.6
20260831203554 79 301 0.0 2.0 0.00 0.04 0.01 51 1012.5
20260831203053 78 344 0.0 2.0 0.00 0.04 0.01 50 1012.5
20260831202552 78 290 0.0 2.0 0.00 0.04 0.01 51 1012.5
20260831202052 78 37 0.0 3.0 0.00 0.04 0.01 53 1012.6
20260831201557 78 271 1.0 4.0 0.00 0.04 0.01 49 1012.5
20260831201052 78 271 1.0 4.0 0.00 0.04 0.01 51 1012.5
20260831200550 78 296 1.0 4.0 0.00 0.04 0.01 49 1012.7
20260831200050 78 284 1.0 3.0 0.00 0.04 0.01 51 1012.6
20260831195551 78 263 1.0 3.0 0.00 0.04 0.01 52 1012.7
20260831195049 78 304 0.0 3.0 0.00 0.04 0.01 52 1012.8
20260831194555 77 333 2.0 3.0 0.00 0.04 0.01 59 1012.9
20260831194045 78 248 1.0 4.0 0.00 0.04 0.01 56 1013.0
20260831193545 78 323 2.0 5.0 0.00 0.04 0.01 47 1013.1
20260831193051 78 255 3.0 5.0 0.00 0.04 0.01 50 1013.1
20260831192544 78 282 2.0 6.0 0.00 0.04 0.01 57 1013.2
20260831192042 78 285 2.0 4.0 0.00 0.04 0.01 58 1013.3
20260831191548 77 190 0.0 3.0 0.00 0.04 0.01 61 1013.3
20260831191042 77 286 1.0 3.0 0.00 0.04 0.01 56 1013.3
20260831190538 76 295 0.0 6.0 0.00 0.04 0.01 57 1013.4
20260831190041 76 109 2.0 6.0 0.00 0.04 0.01 55 1013.4
20260831185537 76 195 2.0 6.0 0.00 0.05 0.01 55 1013.4
20260831185036 75 128 1.0 7.0 0.00 0.05 0.01 57 1013.3
20260831184537 75 261 2.0 9.0 0.00 0.05 0.01 56 1013.4
20260831184035 75 304 2.0 9.0 0.00 0.05 0.01 59 1013.4
20260831183534 75 246 2.0 8.0 0.00 0.05 0.01 58 1013.5
20260831183035 75 288 2.0 6.0 0.00 0.05 0.01 63 1013.5
20260831182533 75 267 1.0 7.0 0.00 0.05 0.01 63 1013.6
20260831182032 74 237 3.0 7.0 0.00 0.05 0.01 63 1013.7
20260831181531 74 248 1.0 5.0 0.00 0.05 0.01 72 1013.7
20260831181034 73 286 1.0 5.0 0.00 0.05 0.01 62 1013.8
20260831180532 73 239 2.0 5.0 0.00 0.05 0.01 73 1013.9
20260831180033 73 304 2.0 5.0 0.00 0.05 0.01 68 1013.9
20260831175535 73 285 1.0 3.0 0.00 0.05 0.01 73 1013.9
20260831175030 72 301 1.0 4.0 0.00 0.05 0.01 70 1014.0
20260831174531 72 269 2.0 5.0 0.00 0.05 0.01 67 1013.9
20260831174029 73 231 1.0 4.0 0.00 0.05 0.01 64 1013.9
20260831173530 73 286 1.0 3.0 0.00 0.05 0.01 63 1013.9
20260831173038 74 254 0.0 2.0 0.00 0.05 0.01 59 1013.9
20260831172529 74 284 0.0 6.0 0.00 0.05 0.01 60 1013.9
20260831172031 74 271 1.0 6.0 0.00 0.05 0.01 56 1014.0
20260831171528 74 258 1.0 5.0 0.00 0.05 0.01 63 1014.0
20260831171028 74 304 1.0 5.0 0.00 0.05 0.01 63 1013.9
20260831170528 74 239 2.0 5.0 0.00 0.05 0.01 62 1014.0
20260831170027 74 244 1.0 5.0 0.00 0.05 0.01 58 1014.1
20260831165525 73 313 2.0 5.0 0.00 0.05 0.01 62 1014.1
20260831165025 73 261 0.0 4.0 0.00 0.05 0.01 65 1014.2
20260831164525 73 279 1.0 7.0 0.00 0.05 0.01 69 1014.2
20260831164023 73 286 3.0 7.0 0.00 0.05 0.01 63 1014.3
20260831163524 72 327 2.0 6.0 0.00 0.05 0.01 68 1014.3
20260831163021 72 238 2.0 6.0 0.00 0.05 0.01 62 1014.4
20260831162525 72 84 1.0 5.0 0.00 0.05 0.01 70 1014.4
20260831162020 72 355 1.0 4.0 0.00 0.05 0.01 71 1014.4
20260831161520 72 223 2.0 4.0 0.00 0.05 0.01 65 1014.5
20260831161019 72 296 2.0 5.0 0.00 0.05 0.01 78 1014.4
20260831160518 71 253 2.0 6.0 0.00 0.05 0.01 68 1014.5
20260831160026 71 260 0.0 5.0 0.00 0.05 0.01 71 1014.5
20260831155517 71 277 1.0 4.0 0.00 0.05 0.01 70 1014.6
20260831155022 71 224 1.0 5.0 0.00 0.05 0.01 67 1014.7
20260831154518 71 346 2.0 4.0 0.00 0.05 0.01 74 1014.7
20260831154014 71 313 0.0 4.0 0.00 0.05 0.01 74 1014.6
20260831153513 70 305 2.0 4.0 0.00 0.05 0.01 74 1014.6
20260831153012 69 151 0.0 2.0 0.00 0.05 0.01 73 1014.6
20260831152511 69 146 0.0 3.0 0.00 0.05 0.01 70 1014.6
20260831152009 68 168 1.0 4.0 0.00 0.05 0.01 74 1014.7
20260831151508 67 316 0.0 2.0 0.00 0.05 0.01 72 1014.7
20260831151011 67 246 0.0 2.0 0.00 0.05 0.01 73 1014.7
20260831150505 67 240 0.0 3.0 0.00 0.05 0.01 79 1014.7
20260831150008 66 213 0.0 3.0 0.00 0.14 0.01 76 1014.8
20260831145503 66 294 1.0 3.0 0.00 0.14 0.01 78 1014.8
20260831145003 66 296 1.0 3.0 0.00 0.14 0.01 82 1014.8
20260831144502 66 245 1.0 4.0 0.00 0.14 0.01 80 1014.8
20260831144001 66 230 1.0 4.0 0.00 0.14 0.01 82 1014.7
20260831143600 65 289 1.0 3.0 0.00 0.14 0.01 85 1014.7
20260831143108 64 331 0.0 3.0 0.00 0.14 0.01 82 1014.6
20260831142558 64 146 0.0 3.0 0.00 0.14 0.01 85 1014.7
20260831142059 64 222 0.0 2.0 0.00 0.14 0.01 87 1014.7
20260831141555 63 240 0.0 1.0 0.00 0.14 0.01 88 1014.7
20260831141053 63 240 0.0 2.0 0.00 0.14 0.01 92 1014.9
20260831140552 62 300 0.0 2.0 0.00 0.14 0.01 90 1014.9
20260831140051 61 300 0.0 2.0 0.00 0.14 0.01 93 1015.0
20260831135550 61 300 1.0 2.0 0.00 0.14 0.01 93 1015.1
20260831135049 60 164 0.0 2.0 0.00 0.14 0.01 94 1015.2
20260831134556 60 273 0.0 2.0 0.00 0.14 0.01 95 1015.2
20260831134049 60 245 0.0 2.0 0.00 0.14 0.01 95 1015.2
20260831133545 59 291 1.0 2.0 0.00 0.14 0.01 96 1015.2
20260831133045 59 233 0.0 2.0 0.00 0.14 0.01 99 1015.2
20260831132545 59 233 0.0 2.0 0.00 0.14 0.01 99 1015.2
20260831132044 59 233 0.0 1.0 0.00 0.14 0.01 100 1015.3
20260831131545 59 233 0.0 1.0 0.00 0.14 0.01 100 1015.4
20260831131043 58 233 0.0 1.0 0.00 0.14 0.01 100 1015.4
20260831130543 59 233 0.0 2.0 0.00 0.14 0.01 100 1015.5
20260831130048 59 142 0.0 2.0 0.00 0.14 0.01 100 1015.4
20260831125542 58 142 0.0 2.0 0.00 0.14 0.01 100 1015.4